Theta_e
331 341 339 331 309 307 301 304 310 308 308 312 313 313 314 317 314 312 339 341 344 344 343 343 345 348 348 348 348 348 348 346 344 345 346 346 346 347 346 345 346 346 344 342 339 339 339 337 334
323 336 333 321 304 297 300 309 307 311 315 315 316 315 314 313 329 331 335 341 346 345 342 341 343 346 347 348 348 348 348 347 346 346 346 346 345 347 345 344 345 343 340 340 339 338 338 337 336
320 334 319 309 304 299 300 309 310 313 317 317 317 322 318 320 331 333 340 342 345 344 343 341 343 346 347 347 348 347 347 348 345 347 344 345 346 345 345 344 344 342 340 338 338 338 338 337 336
313 318 315 305 301 305 306 310 311 312 315 318 319 317 328 334 333 338 341 343 344 344 343 340 344 347 347 348 348 348 346 348 346 347 345 343 343 345 344 343 343 342 340 338 337 338 338 337 336
312 306 303 301 303 307 310 312 314 311 313 316 319 317 323 332 339 340 340 342 343 344 342 340 344 346 347 347 347 346 346 346 345 346 344 343 342 342 342 342 341 340 339 336 335 334 335 336 336
306 305 298 299 302 308 310 313 313 314 315 318 318 319 326 334 335 337 340 342 345 342 340 339 338 341 344 345 344 345 345 344 344 344 343 341 340 341 340 340 338 337 336 334 332 331 330 330 329
305 302 296 301 302 306 310 313 310 312 315 317 323 318 327 330 335 337 340 343 343 341 339 337 342 341 337 339 340 342 343 343 343 342 341 339 339 338 337 336 337 335 332 331 330 329 328 327 326
309 303 299 301 301 303 312 312 313 311 313 323 325 318 321 329 335 337 341 340 340 341 339 335 337 342 343 343 334 336 337 338 339 338 335 334 332 332 333 332 334 333 332 330 329 328 327 327 327
309 298 296 300 303 305 312 310 314 316 315 320 322 324 331 334 335 334 336 335 335 338 338 334 334 338 340 342 337 332 332 332 332 331 328 328 332 331 329 329 333 334 332 330 328 327 327 326 326
304 299 299 307 309 306 309 310 312 311 313 317 321 328 333 333 332 330 330 330 333 335 338 333 332 334 337 339 341 340 338 336 333 333 333 331 331 331 330 327 329 332 331 331 328 328 326 323 324
305 298 304 304 308 307 308 309 311 307 309 315 316 325 329 329 329 328 329 330 332 337 337 335 332 332 335 338 340 342 339 336 333 331 331 332 331 331 330 332 331 330 324 327 328 327 327 325 324
300 305 305 306 306 306 304 311 307 306 311 314 320 329 329 327 327 327 328 330 331 334 335 336 334 333 333 338 339 341 338 336 332 331 333 332 331 332 330 329 330 330 327 329 329 328 328 326 326
301 302 305 306 306 306 307 305 306 307 309 311 324 328 328 327 327 329 330 332 332 332 333 334 335 335 334 336 337 338 337 335 332 333 333 332 330 331 330 330 330 330 330 329 329 328 327 326 326
304 304 304 305 304 306 303 305 304 307 309 313 322 326 328 327 327 329 331 331 332 333 333 334 334 335 334 335 335 337 337 335 333 333 332 332 332 331 331 329 329 329 329 329 329 327 326 326 327
303 299 302 303 304 303 304 301 302 306 308 312 320 324 327 328 328 328 331 330 331 332 333 332 333 334 333 333 335 337 336 335 334 333 333 333 332 332 331 330 329 329 330 329 329 328 328 327 327
297 299 293 301 303 304 302 295 304 305 308 311 317 322 325 327 326 329 331 331 331 330 330 331 332 333 334 334 333 333 334 335 334 334 334 333 332 332 331 331 330 331 331 330 329 328 326 327 324
290 286 291 295 303 300 298 296 301 305 303 309 316 319 322 324 326 328 331 331 331 330 330 329 331 331 333 335 335 334 335 334 335 334 334 335 334 333 333 333 333 333 331 330 330 329 327 325 323
285 287 290 290 296 299 297 296 301 304 302 303 313 319 320 321 320 324 329 331 331 331 330 330 330 330 332 334 333 334 336 335 335 334 335 335 334 333 333 333 332 333 331 329 328 327 327 325 325
294 291 289 290 294 296 297 296 299 303 303 300 303 310 316 310 309 313 318 320 329 330 328 330 329 330 331 330 331 333 330 334 336 338 337 337 335 333 331 331 330 330 328 328 327 326 324 325 325
293 290 288 290 293 292 290 294 300 300 300 297 298 303 309 306 304 303 312 311 312 313 316 325 329 330 331 332 333 332 334 334 335 336 336 336 334 334 332 331 331 330 328 327 326 325 324 324 326
292 290 288 288 291 293 291 290 294 298 298 297 298 300 305 305 302 300 300 304 307 307 308 312 317 323 330 332 331 331 333 334 334 334 334 334 335 334 333 332 331 330 329 327 327 326 324 322 325
288 293 292 289 289 284 291 285 293 296 293 295 296 297 297 297 299 297 297 296 299 303 306 308 311 315 319 326 330 329 328 329 331 332 335 334 335 334 334 332 332 331 329 328 328 327 326 325 322
289 294 292 291 289 288 287 285 288 294 290 294 294 294 294 293 293 293 294 295 296 298 304 304 305 307 310 314 320 329 328 332 333 333 333 333 333 334 332 331 331 330 329 329 329 327 327 326 324
295 292 290 290 287 281 287 285 283 291 292 294 293 292 293 292 291 292 293 295 295 297 299 300 301 301 305 307 310 314 323 328 330 331 331 331 331 329 327 328 329 330 331 330 331 330 328 327 326
292 288 280 279 278 280 287 284 284 289 291 293 293 290 290 292 291 290 290 291 292 294 295 297 298 297 300 303 303 305 307 313 315 318 325 327 322 319 316 318 318 317 318 317 318 318 316 315 317
289 287 282 275 277 279 284 280 285 289 290 291 292 290 289 289 290 290 289 290 291 292 293 295 296 297 299 299 298 299 301 303 305 305 310 309 309 310 311 312 312 311 311 310 310 309 307 307 307
286 284 287 282 280 280 282 284 289 290 289 290 289 288 287 287 288 288 289 289 289 290 291 293 295 296 298 300 299 297 299 300 300 301 301 301 302 304 305 305 304 305 305 304 304 302 301 300 300
289 291 282 284 275 275 279 281 284 287 288 288 288 288 286 286 286 287 287 288 289 289 290 292 293 294 296 298 298 298 296 295 295 295 295 296 297 299 300 301 301 300 300 300 299 297 296 295 294
286 284 285 285 282 278 276 280 289 288 290 289 289 289 288 287 286 286 286 287 288 289 290 290 291 292 293 294 295 295 294 294 293 292 292 292 293 294 296 297 297 296 296 296 293 292 291 290 289
289 287 286 281 278 281 281 280 291 290 291 291 289 289 289 288 287 287 287 287 287 288 289 289 290 290 291 293 292 292 291 291 291 290 290 291 290 291 291 292 292 291 291 290 289 288 288 287 287
Wind_Speed
5 8 5 4 7 9 17 17 10 10 10 13 12 11 11 11 5 0 9 7 21 20 19 18 16 17 16 15 14 15 14 14 14 13 15 14 13 14 15 16 16 17 18 17 15 15 14 14 14
12 3 2 7 9 12 14 18 14 9 9 12 10 9 10 15 9 10 11 10 22 19 18 18 15 17 16 15 14 14 14 14 15 17 16 15 14 15 15 15 14 15 15 16 14 13 13 14 13
12 6 4 5 13 15 15 17 13 15 8 8 8 6 11 3 9 12 7 18 21 17 17 17 15 17 16 15 14 13 14 14 15 17 16 15 15 15 15 15 14 14 15 15 14 13 13 13 13
8 6 6 10 15 20 19 12 10 15 6 9 11 9 5 6 6 7 16 20 18 18 16 18 16 16 16 14 13 14 15 13 15 16 15 15 14 13 14 14 14 14 14 15 13 12 12 12 11
3 6 11 14 19 18 14 14 4 12 12 13 11 7 8 4 5 10 17 16 15 17 16 18 14 16 16 15 14 14 14 15 15 15 15 14 13 12 12 14 14 14 15 13 12 12 12 11 10
3 5 10 16 20 21 11 16 10 9 10 7 9 11 7 5 9 12 16 15 18 17 17 16 12 12 15 14 15 15 14 15 14 15 14 14 13 11 12 13 13 14 14 10 11 11 11 10 9
5 6 11 15 17 22 18 15 12 13 10 9 6 11 7 7 11 12 13 12 16 16 14 16 16 14 11 12 11 12 12 12 13 14 13 12 12 12 13 13 11 13 11 10 9 9 9 8 7
4 2 15 17 14 25 17 13 9 14 11 10 1 5 7 13 13 13 14 11 16 16 16 16 16 16 15 13 10 11 11 11 11 11 10 9 9 10 12 11 10 11 10 9 9 8 7 6 5
4 7 10 22 26 14 14 18 10 4 5 8 6 6 5 21 15 15 12 10 10 12 16 16 16 16 15 14 11 11 11 10 10 10 9 10 8 9 10 10 10 9 8 8 7 6 5 5 4
6 8 17 26 22 16 10 15 11 7 13 9 7 5 18 18 16 19 17 14 13 11 16 13 16 16 15 12 14 12 11 9 8 9 11 8 8 7 9 9 8 8 7 5 5 5 3 5 2
8 9 16 11 10 9 15 17 8 6 14 12 12 14 17 16 14 18 15 15 12 14 11 15 16 14 14 11 9 6 7 5 7 10 9 6 6 5 6 6 5 6 6 6 6 5 5 2 3
14 17 4 5 6 5 4 15 12 10 11 9 4 19 18 19 15 18 18 18 15 13 12 11 13 15 14 9 7 8 6 6 6 8 8 6 5 6 5 5 6 4 5 2 2 1 2 2 1
11 9 16 7 2 7 4 12 14 11 14 2 8 17 18 17 15 14 16 15 14 13 13 14 10 11 13 9 6 7 6 7 8 8 8 7 6 6 5 4 4 4 4 3 2 1 2 2 2
20 21 15 12 7 6 5 11 6 15 7 6 11 16 15 16 16 16 13 15 17 13 13 13 12 9 8 12 9 6 6 8 8 8 8 9 6 6 5 4 4 4 3 3 2 1 1 2 1
8 14 11 16 15 5 4 14 11 8 7 10 14 12 14 15 16 17 15 13 13 11 13 13 12 11 10 13 11 9 6 9 8 8 10 9 7 7 6 5 4 4 4 3 3 3 2 2 1
7 12 11 12 20 9 6 9 15 2 10 12 14 14 15 16 13 12 14 13 11 11 11 10 9 11 10 11 9 8 8 8 8 8 8 10 9 8 6 4 4 4 4 4 3 2 2 2 2
1 3 10 10 18 8 8 4 4 0 4 8 11 12 10 10 10 8 11 11 11 10 11 11 12 11 10 12 11 9 5 7 7 7 6 10 9 7 6 5 4 5 4 4 2 1 2 1 2
6 6 5 8 5 11 19 8 4 1 7 3 5 6 10 10 7 9 2 9 9 10 10 8 8 10 9 7 6 8 6 5 5 7 7 9 6 7 4 1 0 1 2 2 2 3 3 3 2
18 13 9 6 5 3 18 19 10 2 6 8 2 2 8 9 6 12 9 9 6 6 7 7 11 10 8 5 4 4 6 5 3 5 9 8 7 7 6 4 4 4 4 5 4 3 3 3 3
18 18 7 10 6 4 1 7 17 5 5 4 1 8 7 9 10 10 8 9 10 8 9 3 4 7 7 6 7 3 6 2 7 7 5 7 8 8 7 7 6 7 5 5 5 5 2 3 3
18 17 15 10 9 2 4 5 13 4 2 2 6 11 11 9 6 8 7 8 6 7 7 6 6 4 5 5 4 2 4 6 7 7 5 7 8 9 9 9 7 7 6 6 6 7 7 4 4
11 14 13 16 11 3 4 4 17 14 7 2 6 10 10 9 9 8 5 6 9 7 6 9 8 8 7 3 7 9 7 8 8 7 6 6 7 7 7 6 6 6 5 6 6 6 6 5 5
12 19 16 13 7 7 8 7 5 14 9 9 5 9 10 8 9 9 8 8 6 6 7 7 8 9 9 8 7 4 5 6 4 4 5 5 5 5 4 4 4 4 3 4 5 5 6 5 4
17 20 15 9 5 4 9 6 7 9 6 11 10 6 9 10 9 9 8 8 7 5 7 7 7 6 9 9 8 7 5 6 6 7 7 4 4 3 4 3 2 2 3 4 4 5 4 4 5
14 11 4 4 3 1 6 6 8 7 4 4 12 10 7 8 9 9 9 8 8 10 11 9 11 11 10 10 10 9 8 6 6 6 1 4 2 2 3 2 3 2 2 3 2 3 4 4 3
14 4 3 5 7 5 4 4 5 5 4 6 8 10 7 7 9 9 8 7 10 11 11 9 7 7 7 8 8 7 7 5 5 6 5 5 5 4 4 4 4 5 5 5 5 4 4 5 5
2 4 4 5 2 4 6 5 5 4 6 5 8 7 7 5 7 8 6 8 8 7 8 7 5 7 6 9 7 8 6 6 5 6 6 5 6 5 5 5 5 6 6 7 6 5 6 7 7
6 4 4 1 6 5 5 5 7 5 5 6 7 8 7 6 6 5 6 7 5 6 4 4 5 6 9 9 8 7 7 7 7 7 8 7 6 7 5 6 6 7 7 8 8 7 8 8 6
4 1 1 3 4 2 6 6 5 3 2 7 9 9 8 9 8 6 5 3 2 2 3 6 6 7 8 8 7 7 7 7 8 7 7 7 7 7 7 7 8 9 9 8 9 10 9 10 8
1 7 3 3 2 3 3 5 4 5 6 8 9 9 8 7 7 7 5 5 3 3 2 3 5 7 7 7 6 7 7 7 8 8 8 8 8 8 8 8 9 9 10 9 10 10 9 8 10
Wind_Direction
258 212 224 215 212 235 234 238 227 234 229 217 228 222 235 246 233 91 153 124 136 143 147 154 150 149 149 145 144 140 144 144 143 145 132 124 124 120 113 107 109 105 101 97 97 97 96 96 93
304 202 239 244 238 214 228 238 202 226 197 184 200 223 226 234 87 119 141 182 135 141 149 151 149 149 150 149 150 149 149 147 140 137 124 116 118 121 119 111 103 105 102 96 97 101 105 102 95
290 230 242 236 225 231 232 225 227 211 168 187 195 254 212 116 85 144 128 157 127 143 152 142 148 150 153 155 156 156 148 146 141 128 124 120 112 119 118 112 109 106 102 98 96 96 106 105 97
328 202 251 238 222 228 240 256 207 226 185 215 231 185 95 28 135 141 146 147 136 149 146 142 147 151 152 142 148 152 148 145 138 127 122 120 117 111 116 114 108 111 104 100 97 94 99 111 103
19 283 236 216 234 232 223 252 291 234 195 204 217 166 126 72 93 140 152 130 146 144 138 153 144 146 143 137 140 139 143 145 138 124 119 116 116 118 113 113 110 112 101 103 102 99 95 90 93
145 278 234 223 214 230 207 238 222 247 206 186 210 218 106 101 126 149 146 145 149 133 143 148 136 136 138 140 136 134 130 133 130 123 122 119 119 119 128 115 110 107 100 110 106 101 99 96 91
217 190 242 226 223 224 211 228 216 236 208 178 238 212 95 158 143 154 145 164 140 136 147 153 155 142 130 136 132 125 120 118 122 127 127 123 117 105 96 95 94 105 115 113 108 105 101 99 92
195 230 213 247 224 224 205 220 228 232 232 111 320 210 168 163 152 156 148 155 151 145 153 154 158 158 157 151 127 121 117 115 116 116 122 128 120 110 110 110 111 119 123 122 118 114 110 102 89
132 216 220 216 229 223 229 219 182 282 223 186 141 357 80 141 153 157 146 164 147 154 155 157 161 165 162 156 139 122 115 111 112 115 122 147 135 148 155 105 122 128 130 131 128 125 123 134 139
215 219 223 228 233 231 203 229 219 201 216 192 147 116 125 146 159 161 159 155 166 159 154 157 163 170 161 154 158 152 144 151 152 155 162 174 156 141 121 118 126 128 134 134 138 138 178 225 215
191 239 225 273 249 320 241 217 202 239 225 205 186 166 154 158 169 170 160 157 162 165 157 165 164 171 171 150 163 163 160 159 152 153 178 161 149 143 154 139 155 150 185 177 187 183 225 13 331
187 211 171 207 325 268 247 238 207 232 254 342 165 162 167 167 179 178 167 164 165 161 161 168 169 167 176 157 156 166 152 163 160 165 168 158 159 177 174 166 168 161 187 153 210 160 12 308 299
205 173 199 180 254 309 321 266 226 194 274 11 164 161 173 179 175 184 177 154 172 164 165 160 159 185 166 165 160 168 164 166 165 163 173 172 170 177 178 178 173 188 165 194 189 229 244 241 259
205 205 180 178 190 273 284 257 229 205 256 214 181 174 176 184 179 175 167 171 177 161 169 159 157 169 167 168 180 170 166 171 170 169 176 183 171 172 174 171 190 193 194 184 225 274 279 248 273
207 196 214 178 181 185 299 240 218 98 242 229 189 179 178 179 180 183 167 160 170 180 165 161 165 163 170 181 177 191 172 174 176 172 175 181 181 180 179 175 183 194 182 208 211 211 223 245 320
213 178 169 174 173 168 86 250 218 109 191 225 201 177 176 167 169 182 169 169 171 169 172 172 165 171 174 183 182 201 182 180 182 178 178 187 192 188 192 191 196 193 188 206 227 239 256 48 350
332 168 138 155 188 131 150 253 104 317 132 234 216 184 167 147 156 181 173 165 163 166 171 183 181 177 181 202 165 215 178 197 190 184 186 190 195 202 201 201 200 187 204 210 232 268 81 207 255
142 111 152 121 150 174 187 212 261 84 44 292 254 202 176 151 76 40 78 154 166 164 175 171 176 182 178 225 168 190 184 203 208 198 194 192 183 203 207 221 318 80 177 177 202 223 187 237 260
198 133 127 57 53 187 201 195 223 349 56 18 356 171 99 82 55 51 28 16 161 143 167 188 174 180 175 181 195 216 198 194 216 216 210 181 187 189 193 196 194 184 200 203 211 216 234 230 213
137 129 111 95 42 55 134 213 206 143 79 28 358 137 121 90 42 41 36 29 41 61 51 78 167 175 178 179 191 201 201 198 217 207 213 188 190 190 196 195 196 194 191 197 200 193 194 228 160
154 162 158 129 123 80 147 226 225 160 128 39 73 66 103 117 90 73 32 29 52 40 32 45 33 13 183 169 171 207 240 226 221 206 203 198 194 192 197 199 200 197 194 201 201 199 202 220 201
143 158 129 138 150 163 171 212 199 169 142 121 70 94 84 87 85 72 58 19 29 44 34 41 28 28 32 352 185 196 217 207 221 199 198 193 197 202 202 205 200 196 198 207 205 199 209 211 229
129 135 137 140 133 163 188 266 95 138 160 162 104 95 94 74 76 61 51 58 45 7 51 37 37 28 24 29 12 224 227 260 279 234 173 183 172 178 175 186 193 210 212 230 219 208 208 215 232
124 113 107 106 109 223 169 235 144 173 172 159 130 91 94 92 77 69 51 37 47 62 50 57 60 42 34 33 27 10 345 295 252 215 218 195 154 81 58 33 352 299 270 256 251 237 218 226 236
152 146 108 94 168 244 149 194 60 93 79 129 152 127 94 95 78 61 48 34 19 26 33 23 34 35 31 37 28 16 7 12 0 348 316 150 114 116 73 44 65 62 55 49 49 63 57 16 6
168 39 106 137 174 148 145 219 103 75 68 105 101 122 102 71 78 62 49 34 29 26 22 24 29 51 48 59 46 29 14 22 16 11 14 31 61 61 54 69 73 62 54 55 61 59 51 62 62
132 122 16 99 53 165 171 111 129 127 112 139 137 134 123 103 72 63 50 42 29 30 27 2 29 44 47 69 61 49 32 32 22 29 39 40 39 45 47 60 68 62 60 63 62 63 63 59 56
43 106 139 179 167 151 182 156 88 156 135 147 144 135 126 108 92 84 46 48 25 11 8 19 27 51 41 56 54 53 46 45 45 44 44 43 38 37 38 58 68 64 66 68 69 65 59 68 54
108 177 268 60 338 128 154 111 23 33 102 143 131 123 131 135 139 137 115 90 40 38 14 34 30 42 49 49 53 58 48 48 52 53 48 46 46 45 44 53 66 68 67 70 79 73 69 77 70
28 189 327 329 80 20 354 90 61 76 98 117 116 116 119 122 123 118 124 112 108 69 32 44 45 55 50 53 58 64 59 54 56 56 55 52 56 49 56 59 64 68 72 65 73 75 70 66 68